This is the latest recevied weather packets stored in our database for station/object K1WJY. If no packets are shown the sender has not sent any weather packets the latest 10 day(s).
| Time | Temp. | Humidity | Pressure | Rain* | Wind** | Luminosity | Snow |
|---|---|---|---|---|---|---|---|
| 1778015187 | 14.44° C | 81% | 1008.9 hPa | 0 mm | - | 257 W/m² | - |
| 1778014884 | 14.44° C | 81% | 1009.1 hPa | 0 mm | - | 300 W/m² | - |
| 1778014581 | 14.44° C | 81% | 1009 hPa | 0 mm | - | 308 W/m² | - |
| 1778014279 | 14.44° C | 81% | 1009.1 hPa | 0 mm | - | 305 W/m² | - |
| 1778013976 | 14.44° C | 82% | 1009 hPa | 0 mm | - | 298 W/m² | - |
| 1778013674 | 15° C | 81% | 1009.1 hPa | 0 mm | - | 299 W/m² | - |
| 1778013370 | 14.44° C | 82% | 1009.3 hPa | 0 mm | - | 348 W/m² | - |
| 1778013067 | 14.44° C | 83% | 1009 hPa | 0 mm | - | 390 W/m² | - |
| 1778012763 | 14.44° C | 82% | 1009.1 hPa | 0 mm | - | 368 W/m² | - |
| 1778012459 | 14.44° C | 83% | 1009.3 hPa | 0 mm | - | 406 W/m² | - |
| 1778012156 | 14.44° C | 82% | 1009.1 hPa | 0 mm | - | 426 W/m² | - |
| 1778011854 | 14.44° C | 82% | 1009.2 hPa | 0 mm | - | 388 W/m² | - |
| 1778011551 | 14.44° C | 81% | 1009 hPa | 0 mm | - | 403 W/m² | - |
| 1778011248 | 14.44° C | 82% | 1009.1 hPa | 0 mm | - | 420 W/m² | - |
| 1778010944 | 14.44° C | 82% | 1009.5 hPa | 0 mm | - | 409 W/m² | - |
| 1778010642 | 14.44° C | 82% | 1009.5 hPa | 0 mm | - | 403 W/m² | - |
| 1778010339 | 15° C | 81% | 1009.5 hPa | 0 mm | - | 400 W/m² | - |
| 1778010034 | 15.56° C | 80% | 1009.7 hPa | 0 mm | - | 422 W/m² | - |
| 1778009731 | 15.56° C | 80% | 1009.4 hPa | 0 mm | - | 489 W/m² | - |
| 1778009429 | 15° C | 81% | 1009.3 hPa | 0 mm | - | 422 W/m² | - |
| 1778009127 | 15.56° C | 80% | 1009.5 hPa | 0 mm | - | 474 W/m² | - |
| 1778008825 | 16.11° C | 78% | 1009.4 hPa | 0 mm | - | 501 W/m² | - |
| 1778008522 | 16.11° C | 77% | 1009.3 hPa | 0 mm | - | 507 W/m² | - |
| 1778008220 | 16.11° C | 77% | 1009.3 hPa | 0 mm | - | 546 W/m² | - |
| 1778007915 | 16.11° C | 78% | 1009.3 hPa | 0 mm | - | 530 W/m² | - |
* Rain latest hour (hover to see other rain measurements)
** Current wind speed in m/s (hover to see current wind gust speed)